OPS 4682 DEB, 18479

Orbit data source: Space-Track

OPS 4682 DEB, 18479 is space debris in LEO originally from a launch on Sat, 03 Apr 1965 UTC launched from the Air Force Western Test Range (AFWTR). Debris objects in space refer to the collection of defunct objects orbiting the Earth. Examples of debris include non-operational satellites, rocket bodies, and fragments generated from explosions, collisions, or faulty payload assembly.

Loading next visibility...
Identifier
18479, 1965-027AC
Orbit
LEO
Country
Flag of USUS
Related business
Manufacturer
Unknown
Mission
Spacecraft
Bus & Motor
Unknown
Mass
Unknown
Launch date (UTC)
1965-04-03 (61 years ago)
Launch vehicle
Unknown
Launch site
Air Force Western Test Range (AFWTR)
Object type
Payload
Rocket body
Debris
Shape & HBR
Unknown shape, 0.1 m
Radar Cross Section
Medium (>0.1 m² and <1 m²)

Expand to show TLE details & history
Last TLE update: 1 week ago

TLE from 1 week ago
0 OPS 4682 DEB
1 18479U 65027AC  26152.35649601  .00000204  00000-0  67260-3 0  9999
2 18479  90.2381   5.4913 0031012 102.6351  24.4853 12.97588066945704
Epoch: 2026-06-01T08:33Z
TLE epoch observation values (Epoch: 2026-06-01T08:33:21.255Z)
Latitude
52.82317°
Longitude
167.62012°
Altitude
1,258.625 km
Speed
7.241 km/s
True Right ascension
12h 23m 12s
True Declination
52° 40' 06"
Sunlit
Object was in daylight at epoch
Visualization orbit readout
Latitude
Unknown
Longitude
Unknown
Altitude
Unknown
Speed
Unknown
Apparent Right ascension
Unknown
Apparent Declination
Unknown
Sunlit
N/A
Visualization observer readout
Local Sidereal Time
13:59:06
Azimuth
Unknown
Elevation
Unknown
Doppler factor
Unknown
Orbital elements
Apogee altitude
1,292.396 km
Perigee altitude
1,244.968 km
Semi-major axis
7,646.819 km
Eccentricity
0.0031
Inclination
90.2381°
RAAN
5.4913°
Arg. of periapsis
102.6351°
True anomaly
24.63311°
Mean anomaly
24.4853°
Eccentric anomaly
24.55915°
Mean motion
3.2458 °/min
Orbital period
110.91 mins
BSTAR
0.0006726
Loading maneuver chart data...
Computing Atmospheric mass density...
Loading historical data...
Loading historical data...
Loading historical data...
Loading historical data...
Loading historical data...
Loading historical data...
Loading historical data...

Documentation

Showing up to 5 results
|